"Pseudo-MPEC" for C0C9Y91

Created 2019 Jun 15 19:07:20 UT using Find_Orb

Click here for an explanation of pseudo-MPECs

 
 Astrometry: 
     C0C9Y91  C2019 04 05wJy=y,=W8@[c;5s%0C9DwfBDp'59iP$fTW].eVtFsj[lIEibCf)eF51
     C0C9Y91  C2019 04 05dyGy9j)qV^N9llmWAWu1lAZk0w4vTa%U:rEDiU\rHN;_A6Hb^\SnF51
     C0C9Y91  C2019 04 053gE9u`sPEOxi*ZaR.%GG8==:%UvX#0H#ObPcP/a?:vZF*9H,:`I1F51
     C0C9Y91  C2019 04 05)fP;C:oFE.H%Kx4gq(c+OGEwS_7WJ7`jgU3\KYpBOmUc4lw2uEWLF51
     C0C9Y91  C2019 04 25Rpc/@TI0u%wWPW1S4OCl5I82[31l_bM\VQl,Vjc`!u:.cC.`5CcNF51
     C0C9Y91  C2019 04 27.45287 17 08 41.82 +18 33 00.6    ~69J7       VNEOCPG96
     C0C9Y91  C2019 04 27.45798 17 08 41.68 +18 33 01.1    ~69J7 20.4 GVNEOCPG96
     C0C9Y91  C2019 04 27.46310 17 08 41.50 +18 33 02.6    ~69J7 20.6 GVNEOCPG96
     C0C9Y91  C2019 04 27.46821 17 08 41.36 +18 33 03.8    ~69J7 20.4 GVNEOCPG96
     C0C9Y91  C2019 05 08.40771 17 01 48.42 +19 03 45.9    ~69J7 20.1 GVNEOCPG96
     C0C9Y91  C2019 05 08.41283 17 01 48.20 +19 03 46.5    ~69J7 20.2 GVNEOCPG96
     C0C9Y91  C2019 05 08.41795 17 01 47.95 +19 03 47.0    ~69J7 20.1 GVNEOCPG96
     C0C9Y91  C2019 05 08.42305 17 01 47.70 +19 03 47.2    ~69J7 20.3 GVNEOCPG96
     C0C9Y91  C2019 05 080yaAk!_.#gj47@N[]h6X\Du%R[:PEh`x*[i_uwBP43Jbn.**@f(kF51
     C0C9Y91  C2019 05 084Q_dP(JN2`rK[ogwkr1$BMrP1Vqw8gBM'7I/QuVIF7s4hd,yiN;YF51
     C0C9Y91  C2019 05 087L*4dq0ki7]l!yDvUmCFf14+=gtEmiX^obL43\%WMbIN;GKJ;HJ[F51
     C0C9Y91  C2019 05 08Y8fP%:OL*.dSJ6g8LGIcrNY@S]5!.pZF]dw:,[q5-V4#A4A:4p7IF51
     C0C9Y91  C2019 05 10qEs,FVp.d2if)XGk5?%lamgU/gi%YlwXe]Xv-^*rqM8T,_yA%$g@F51
     C0C9Y91  C2019 05 10qUu'vd`U0]Astrometry4Otl%(+/V780CR01h+Q`:LA7j'FT?4)9F51
     C0C9Y91  C2019 05 11[/ufruB/hRRtJ++V6EJb@a,!.`@BC4#R/C%_e4MrAG4k,s!BL^8gF51
     C0C9Y91  C2019 05 11j:u*4rMHOZ2s_q^Mx0HyE:+ro'kue)c/C89Xd@Znlg9=%g;65:5)F51
     C0C9Y91  C2019 05 11y-SRNE\kTY^GkhLredacted;pBr]\6=#+-lBPy))Z61YrWh+o5wqF51
     C0C9Y91  C2019 05 11W#hu%6eBmq)_q%5Jcr^y*qa,VuS'SVo-ROwqclickKjhUO9Z?dC7F51
     C0C9Y91  C2019 05 24.38333 16 46 20.25 +18 38 50.5    ~69J7 21.8 GVNEOCP703
     C0C9Y91  C2019 05 24.38858 16 46 19.92 +18 38 48.9    ~69J7 20.2 GVNEOCP703
     C0C9Y91  C2019 05 24.39384 16 46 19.43 +18 38 46.2    ~69J7 21.7 GVNEOCP703
     C0C9Y91  C2019 05 24.39910 16 46 19.13 +18 38 44.3    ~69J7 20.3 GVNEOCP703
     C0C9Y91  C2019 05 26vA@G\JlWt/4C@L97x)-2sAhereQ7?C:;d4c!;gmqDAX?vxki6iLpF52
     C0C9Y91  C2019 05 26P8Crj[73uRQco,$\O'u/9:_l,N(OforTRZmuR7VC$+O/oEM'WbkfF52
     C0C9Y91  C2019 05 26V,Hl.*uc\UV1aGB*K'ZZP%v$`l5#^UYD[[jjeeS!uc2\0.A56!ofF52
     C0C9Y91  C2019 05 27ZFDtlYQ*5dNJEr:0^G130xI@`jUvk%=%K;=O+HpPh;I)aPkN;iw5L51
     C0C9Y91  C2019 05 27PhE3Jw9O9mFhRH,HSNVWD=biE#YB8cd7CxaAkj48kj9b9l61HHU?L51
     C0C9Y91  C2019 05 270xdg1aYtKqr#29nW',H)waEj.[!0]0*m.Hexplanation4@/nn[?L51
     C0C9Y91  C2019 05 30f8+Y-b`90CjLh44$5xay(/.Qw(:EPOdqhJ*u2khwh3#1Gki7i*6LF51
     C0C9Y91  C2019 05 309xW7Zq\1!!(iK27W`4sk1u\TfL^RxU/i5Z%[Z\J_IBwZ)eZVWE+9F51
     C0C9Y91  C2019 05 30yq?^Nq6)ZYr;^Mvs/!X2CUmuM]RMBEL:?dh6qKYCfrpbkc#laY_gF51
     C0C9Y91  C2019 05 31.36719 16 38 18.21 +17 55 20.9    ~69Ib 19.8 GVNEOCPG96
     C0C9Y91  C2019 05 31.37230 16 38 17.84 +17 55 18.2    ~69Ib 19.9 GVNEOCPG96
     C0C9Y91  C2019 05 31.37741 16 38 17.47 +17 55 15.7    ~69Ib 20.0 GVNEOCPG96
     C0C9Y91  C2019 05 31.38252 16 38 17.09 +17 55 13.5    ~69Ib 19.9 GVNEOCPG96
     C0C9Y91  C2019 06 08.38412 16 28 51.44 +16 38 50.0    ~68Lq 19.9 GVNEOCP703
     C0C9Y91  C2019 06 08.38957 16 28 50.96 +16 38 46.6    ~68Lq 19.8 GVNEOCP703
     C0C9Y91  C2019 06 08.39502 16 28 50.51 +16 38 43.1    ~68Lq 20.5 GVNEOCP703
     C0C9Y91  C2019 06 08.43979 16 28 47.35 +16 38 12.4    ~692M 19.4 GVNEOCPI52
     C0C9Y91  C2019 06 08.44266 16 28 47.17 +16 38 10.4    ~692M 19.4 GVNEOCPI52
     C0C9Y91  C2019 06 08.44593 16 28 46.95 +16 38 08.0    ~692M 19.8 GVNEOCPI52
     C0C9Y91  C2019 06 08.44880 16 28 46.72 +16 38 06.5    ~692M 19.4 GVNEOCPI52
     C0C9Y91  C2019 06 08Tg$`:G_@;$+)o+T@?Q,kHH6(f9tMLZn!M@;N[i*@LyLZsE1%6YNLF52
     C0C9Y91  C2019 06 08;ne6A8JirKm@js!3Wv_1?*GQd7dl=`\p[N@J!Egne1A@Ex^cXH?cF52
     C0C9Y91  C2019 06 082VM$M-0#y^wI_vj-;N\!'R9DKqlj4$!b\NI8'SQX#jUmxpI,$a_,F52
     C0C9Y91  C2019 06 09.17413 16 27 56.61 +16 29 47.0    ~694q 20.2 GVNEOCPI52
     C0C9Y91  C2019 06 09.17921 16 27 56.25 +16 29 42.9    ~694q 19.2 GVNEOCPI52
     C0C9Y91  C2019 06 09.18241 16 27 56.02 +16 29 41.5    ~694q 20.1 GVNEOCPI52
     C0C9Y91  C2019 06 09.18560 16 27 55.82 +16 29 38.8    ~694q 20.1 GVNEOCPI52
     C0C9Y91 KC2019 06 09dixT$W/@m8CHPJ![)$L8LJ.u*oTlTrRr;*?a69/(]W2-2njk@(=DV01
     C0C9Y91 KC2019 06 09klN`FtnrLf4WlSr\G'd*8Q7%E\p?d3c/%kofcx8)2ov@B2g#wKNAV01
     C0C9Y91 KC2019 06 09Mx7l=$UL]Fv=f9%C(Nsp+Ct\njd1e7cV]4l-qm)5YB+^egg8j]xgV01
     C0C9Y91 KC2019 06 091Z\UyGt60*Nk@xj3'Ym#d+C+r[u0Y=unSQm%]d01U(R-r?hQ2lo5V01
     C0C9Y91 KC2019 06 09!jJP*mvRF'E,(?pnNy\K?$#RpLJ_':02onYkFZLEZ2'y)uN\ud-;V01
     C0C9Y91  C2019 06 11.36754 16 25 24.73 +16 03 15.6    ~6B97 19.8 GVNEOCPI52
     C0C9Y91  C2019 06 11.36865 16 25 24.65 +16 03 14.7    ~6B97 19.8 GVNEOCPI52
     C0C9Y91  C2019 06 11.37151 16 25 24.45 +16 03 12.5    ~6B97 19.9 GVNEOCPI52
     C0C9Y91  C2019 06 12.25918 16 24 24.16 +15 51 54.5    ~6C77       VNEOCPI52
     C0C9Y91  C2019 06 12.26123 16 24 24.03 +15 51 53.0    ~6C77 19.4 GVNEOCPI52
     C0C9Y91  C2019 06 13.20010 16 23 20.76 +15 39 35.1    ~6D5M       VNEOCPI52
     C0C9Y91  C2019 06 13.20524 16 23 20.41 +15 39 30.4    ~6D5M 20.8 GVNEOCPI52
     C0C9Y91  C2019 06 13.21039 16 23 20.04 +15 39 26.1    ~6D5M 20.1 GVNEOCPI52
     C0C9Y91  C2019 06 13.21553 16 23 19.70 +15 39 22.2    ~6D5M 21.2 GVNEOCPI52
     C0C9Y91 KC2019 06 14hdG9kKRreb*40d%0D+UX72!2:7b$D#Fc$9TOln.1)?Ob)Mn9_fPqH21
     C0C9Y91 KC2019 06 14g1$$i[je9)shO7^etWn\`A*Sp]R7c;X-r:w7SZ1v0e3nPaKDCe?NH21
     C0C9Y91  C2019 06 14.20982 16 22 13.29 +15 25 57.0    ~6E5b 19.8 GVNEOCPI52
     C0C9Y91  C2019 06 14.21217 16 22 13.13 +15 25 55.1    ~6E5b 20.2 GVNEOCPI52
     C0C9Y91  C2019 06 14.21576 16 22 12.89 +15 25 52.2    ~6E5b 20.2 GVNEOCPI52
     C0C9Y91  C2019 06 14.21811 16 22 12.71 +15 25 50.2    ~6E5b 20.5 GVNEOCPI52
     C0C9Y91  C2019 06 15.19354 16 21 08.41 +15 12 17.1    ~6F5M 19.8 GVNEOCPI52
     C0C9Y91  C2019 06 15.19653 16 21 08.22 +15 12 14.7    ~6F5M 19.6 GVNEOCPI52
     C0C9Y91  C2019 06 15.19952 16 21 08.01 +15 12 12.2    ~6F5M 19.6 GVNEOCPI52
     C0C9Y91  C2019 06 15.20253 16 21 07.82 +15 12 10.0    ~6F5M 19.6 GVNEOCPI52

Station data:
(703) Catalina Sky Survey  (N32.417006 W110.732640)  US/Arizona.  Observers
   T. A. Pruyne, B. M. Africano, E. J. Christensen, G. A. Farneth, D. C.
   Fuls, A. R. Gibbs, A. D. Grauer, H. Groeller, J. A. Johnson, R. A.
   Kowalski, S. M. Larson, G. J. Leonard, R. L. Seaman, F. C. Shelly. 0.68 m
   Schmidt + 10K CCD.
(F51) Pan-STARRS 1, Haleakala  (N20.707235 W156.255910)  US/Hawaii.
   Observers N. Primak, A. Schultz, S. Watters, J. Thiel, T. Goggia. Measurer
   PS1 Science Consortium. 1.8-m Ritchey-Chrétien + CCD.
(F52) Pan-STARRS 2, Haleakala  (N20.707384 W156.255910)  US/Hawaii. 1.8-m
   Ritchey-Chrétien + CCD.
(G96) Mt. Lemmon Survey  (N32.442754 W110.788720)  US/Arizona.  Observers T.
   A. Pruyne, B. M. Africano, E. J. Christensen, G. A. Farneth, D. C. Fuls,
   A. R. Gibbs, A. D. Grauer, H. Groeller, J. A. Johnson, R. A. Kowalski, S.
   M. Larson, G. J. Leonard, R. L. Seaman, F. C. Shelly. 1.5-m reflector +
   10K CCD.
(H21) Astronomical Research Observatory, Westfield  (N39.483057 W87.968270)
   US/Illinois. 0.76-m f/3.0 astrograph + CCD.
(I52) Steward Observatory, Mt. Lemmon Station  (N32.442547 W110.788920)
   US/Arizona.  Observers T. A. Pruyne, B. M. Africano, E. J. Christensen, G.
   A. Farneth, D. C. Fuls, A. R. Gibbs, A. D. Grauer, H. Groeller, J. A.
   Johnson, R. A. Kowalski, S. M. Larson, G. J. Leonard, R. L. Seaman, F. C.
   Shelly. 1.0-m reflector + CCD.
(L51) MARGO, Nauchnij  (N44.729400 E34.016400)  Ukraine.
(V01) Mountainville Observatory, Alpine  (N40.448904 W111.760890)  US/Utah.

Orbital elements:  C0C9Y91
   Perihelion 2020 Jan 16.708792 +/- 0.00693 TT = 17:00:39 (JD 2458865.208792)
Epoch 2019 Jun 15.0 TT = JDT 2458649.5                        AutoNEOCP
M 309.98426395 +/- 0.0036           (J2000 ecliptic)
n   0.23186693 +/- 1.16e-5          Peri.  211.38693 +/- 0.0024
a   2.62407859 +/- 8.78e-5          Node   106.89674 +/- 0.0010
e   0.2209995 +/- 4.61e-5           Incl.   34.43588 +/- 0.0007
P   4.25                   H 16.7   G  0.15   U  5.1  
q 2.04415843 +/- 5.71e-5    Q 3.20399874 +/- 0.000226
From 78 observations 2019 Apr. 5-June 15; mean residual 0".35
Residuals in arcseconds: 
190405 F51  .51+  .22-    190524 703  .03+  .44-    190609 I52  .01+  .02+    
190405 F51  .51+  .15-    190526 F52  .05-  .05+    190609 I52  .41+  .47-    
190405 F51  .45+  .17-    190526 F52  .08-  .19+    190609 V01  .13-  .62+    
190405 F51  .48+  .16-    190526 F52  .14-  .18+    190609 V01  .13-  .58+    
190425 F51  .23-  .16-    190527 L51  .55+  .02-    190609 V01  .63-  .83-    
190427 G96  .26-  .45+    190527 L51  .97+  .49+    190609 V01  .73-  .01+    
190427 G96  .09-  .30-    190527 L51  .23+  .37+    190609 V01  .54-  .48-    
190427 G96  .48-  .06-    190530 F51  .06+  .11+    190611 I52  .08+  .09+    
190427 G96  .30-  .12-    190530 F51  .05+  .14+    190611 I52  .05+  .03+    
190508 G96  .65-  .13-    190530 F51  .07+  .09+    190611 I52  .06+  .00     
190508 G96  .20-  .08+    190531 G96  .11+  .35+    190612 I52  .24-  .00     
190508 G96  .18-  .19+    190531 G96  .13+  .05+    190612 I52  .05-  .09+    
190508 G96  .17-  .01+    190531 G96  .14+  .05-    190613 I52  .04-  .57+    
190508 F51  .23-  .11-    190531 G96  .00   .15+    190613 I52  .04+  .05-    
190508 F51  .24-  .09-    190608 703  1.5+  .74-    190613 I52  .16-  .25-    
190508 F51  .22-  .13-    190608 703  .26+  .42-    190613 I52  .07+  .07-    
190508 F51  .20-  .11-    190608 703  .59-  .19-    190614 H21  .07-  .39+    
